Terminal Aerodrome Forecast
Issued by NWS Cleveland, OH

Home | Current Version | Previous Version | Graphics & Text | Print | Product List | Glossary On
Versions: 1 2 3 4 5 6 7 8 9 10 11 12 13 14 15 16 17 18 19
000
FTUS41 KCLE 301027 AAA
TAFTOL
TAF AMD
KTOL 301027Z 3010/0106 19005KT P6SM SCT040
     FM301500 20006KT P6SM OVC015
     FM301800 25010KT 6SM -SHRA SCT015 OVC025
     FM302100 25010KT P6SM BKN025=

USA.gov is the U.S. government's official web portal to all federal, state and local government web resources and services.